TimeMDT,TemperatureF,Dew PointF,Humidity,Sea Level PressureIn,VisibilityMPH,Wind Direction,Wind SpeedMPH,Gust SpeedMPH,PrecipitationIn,Events,Conditions,WindDirDegrees,DateUTC
12:53 AM,52.0,50.0,93,30.09,10.0,NW,3.5,-,N/A,,Partly Cloudy,310,2013-08-14 06:53:00
1:53 AM,52.0,48.9,89,30.10,10.0,West,4.6,-,N/A,,Clear,280,2013-08-14 07:53:00
2:53 AM,51.1,48.0,89,30.09,10.0,West,4.6,-,N/A,,Clear,270,2013-08-14 08:53:00
3:53 AM,51.1,48.0,89,30.08,10.0,NW,3.5,-,N/A,,Clear,320,2013-08-14 09:53:00
4:53 AM,50.0,46.9,89,30.07,10.0,WNW,3.5,-,N/A,,Clear,300,2013-08-14 10:53:00
5:53 AM,51.1,46.0,83,30.07,10.0,Calm,Calm,-,N/A,,Clear,0,2013-08-14 11:53:00
6:53 AM,48.0,46.0,93,30.11,10.0,West,3.5,-,N/A,,Clear,260,2013-08-14 12:53:00
7:53 AM,57.0,46.0,67,30.09,10.0,NW,3.5,-,N/A,,Clear,310,2013-08-14 13:53:00
8:53 AM,62.1,48.9,62,30.09,10.0,Calm,Calm,-,N/A,,Clear,0,2013-08-14 14:53:00
9:53 AM,66.9,48.0,51,30.07,10.0,NNW,5.8,-,N/A,,Clear,330,2013-08-14 15:53:00
10:53 AM,71.1,48.0,44,30.05,10.0,WNW,5.8,-,N/A,,Clear,290,2013-08-14 16:53:00
11:53 AM,73.0,48.9,42,30.04,10.0,WNW,8.1,-,N/A,,Clear,290,2013-08-14 17:53:00
12:53 PM,73.0,48.0,41,30.03,10.0,Variable,4.6,-,N/A,,Scattered Clouds,0,2013-08-14 18:53:00
1:53 PM,72.0,53.1,51,30.03,10.0,East,11.5,-,N/A,,Mostly Cloudy,100,2013-08-14 19:53:00
2:53 PM,66.9,55.9,68,30.05,10.0,East,10.4,-,N/A,,Mostly Cloudy,80,2013-08-14 20:53:00
3:53 PM,66.9,55.9,68,30.05,10.0,East,5.8,-,N/A,,Scattered Clouds,80,2013-08-14 21:53:00
4:53 PM,66.9,55.0,66,30.04,10.0,ESE,3.5,-,N/A,,Clear,110,2013-08-14 22:53:00
5:53 PM,68.0,55.9,65,30.02,10.0,ENE,9.2,-,N/A,,Clear,70,2013-08-14 23:53:00
6:53 PM,64.9,55.0,70,30.04,10.0,ESE,4.6,-,N/A,,Clear,120,2013-08-15 00:53:00
7:53 PM,61.0,57.0,87,30.06,4.0,NW,4.6,-,0.02,Rain,Heavy Rain,320,2013-08-15 01:53:00
8:01 PM,60.8,57.2,88,30.20,2.5,West,3.5,-,0.14,Rain,Light Rain,280,2013-08-15 02:01:00
8:08 PM,60.8,57.2,88,30.20,5.0,WSW,3.5,-,0.16,Rain,Rain,250,2013-08-15 02:08:00
8:53 PM,57.0,48.9,74,30.05,10.0,SSW,11.5,18.4,0.17,Rain,Light Rain,200,2013-08-15 02:53:00
9:53 PM,57.0,46.9,69,30.02,10.0,West,4.6,-,0.00,,Clear,280,2013-08-15 03:53:00
10:53 PM,54.0,48.0,80,30.01,10.0,Calm,Calm,-,N/A,,Clear,0,2013-08-15 04:53:00
11:53 PM,51.1,48.9,92,30.01,10.0,NNW,3.5,-,N/A,,Clear,330,2013-08-15 05:53:00